Details From EGGP - Liverpool
To EGPH - Edinburgh
Flight Number -
Tags decoded
Created
Modified
Stats Distance 158 nm / 293 km
Max Altitude 0 ft / 0 m
Waypoints 2
Social Downloads 0
Likes 0
Share VATSIM

Download

Looking for another format? Having issues loading an existing format? Contact us
Advertisement - Login to hide

Notes

Requested: EGGP BART1T NANT2T POL4T REXA2T WAL2T EGPH Unmatched points: BART1T NANT2T POL4T REXA2T WAL2T

Route

EGGP EGPH

ID Type Via Altitude Latitude Longitude Leg Dist Tot Dist Heading (true) Name
O EGGP APT - 0 ft / 0 m 53.33363˚ -2.84977˚ - 0 nm - Liverpool
O EGPH APT - 0 ft / 0 m 55.94869˚ -3.35972˚ 158 nm 158 nm 354° / 353° Edinburgh

Altitude Profile

Advertisement - Login to hide

EGGP

Details ICAO EGGP (LPL)
Name Liverpool
Region United Kingdom
Timezone Europe/London (UTC+1.0)
Stats Elevation 80 ft / 24 m (AMSL)
Location 53.333632° -2.849769°
Runways 1
Magnetic Variation 1.607° W

METAR

EGGP 201020Z 18010KT 150V210 CAVOK 19/09 Q1021

Decode

TAF

TAF AMD EGGP 201028Z 2010/2106 18008KT CAVOK PROB30 2102/2106 6000

Decode

Departure Runways

ID Width Length Bearing (true) Bearing (mag) Surface Threshold Offset Overrun Length
09 151 ft / 46 m 7,466 ft / 2,276 m 85.59° 87.20° Asphalt 180 ft / 55 m 0 ft / 0 m
27 151 ft / 46 m 7,466 ft / 2,276 m 265.61° 267.22° Asphalt 0 ft / 0 m 0 ft / 0 m

EGPH

Details ICAO EGPH (EDI)
Name Edinburgh
Region United Kingdom
Timezone Europe/London (UTC+1.0)
Stats Elevation 135 ft / 41 m (AMSL)
Location 55.948685° -3.359718°
Runways 2
Magnetic Variation 2.226° W

METAR

EGPH 201020Z 22013KT CAVOK 15/07 Q1018

Decode

TAF

TAF EGPH 200455Z 2006/2106 20012KT 9999 FEW040 BECMG 2100/2103 VRB03KT

Decode

Destination Runways

ID Width Length Bearing (true) Bearing (mag) Surface Threshold Offset Overrun Length
06 144 ft / 44 m 8,366 ft / 2,550 m 58.80° 61.03° Asphalt 705 ft / 215 m 200 ft / 61 m
12 151 ft / 46 m 5,878 ft / 1,792 m 118.67° 120.90° Asphalt 0 ft / 0 m 0 ft / 0 m
24 144 ft / 44 m 8,366 ft / 2,550 m 238.83° 241.06° Asphalt 679 ft / 207 m 207 ft / 63 m
30 151 ft / 46 m 5,878 ft / 1,792 m 298.69° 300.92° Asphalt 194 ft / 59 m 253 ft / 77 m

Approach Navaids

Runway Type Ident Frequency Range Bearing (true) Bearing (mag) Slope Elevation
06 Localiser IVG 108.90 MHz 18 nm / 33 km 58.83° 61.06° - 110 ft / 34 m (AMSL)
06 Glidescope IVG 108.90 MHz 10 nm / 19 km 58.81° 61.04° 3.00° 135 ft / 41 m (AMSL)
06 DME IVG 108.90 MHz 18 nm / 33 km - - - 123 ft / 37 m (AMSL)
24 Localiser ITH 108.90 MHz 18 nm / 33 km 238.79° 241.01° - 110 ft / 34 m (AMSL)
24 Glidescope ITH 108.90 MHz 10 nm / 19 km 238.81° 241.04° 3.00° 135 ft / 41 m (AMSL)
24 DME ITH 108.90 MHz 18 nm / 33 km - - - 123 ft / 37 m (AMSL)

Popular Alternatives